FW5157 Weather Reports


time (UTC)temp
F
wind
direction
speed
knots
gust
knots
rain 1hr
in
rain 24hr
in
rain mn
in
humidity
%
barometer
mb
20260506073106 49 333 1.7 5.2 0.00 0.00 0.00 77 1012.0
20260506071552 48 331 1.7 4.3 0.00 0.00 0.00 78 1012.0
20260506061552 46 344 1.7 7.8 0.00 0.00 0.00 80 1011.7
20260506044553 46 0 0.9 3.5 0.00 0.00 0.00 81 1011.4
20260506043101 47 327 0.0 4.3 0.00 0.00 0.00 81 1011.3
20260506041556 47 296 0.0 4.3 0.00 0.00 0.00 81 1011.3
20260506040051 47 0 0.9 7.0 0.00 0.00 0.00 81 1011.3
20260506034554 47 0 0.0 5.2 0.00 0.00 0.00 82 1011.2
20260506033106 48 339 0.0 4.3 0.00 0.00 0.00 82 1011.4
20260506031544 48 5 0.0 1.7 0.00 0.00 0.00 82 1011.5
20260506030059 48 0 0.9 3.5 0.00 0.00 0.00 82 1011.3
20260506024545 49 0 0.0 3.5 0.00 0.00 0.00 82 1011.3
20260506023052 49 0 0.9 4.3 0.00 0.00 0.00 82 1011.3
20260506021555 49 338 0.0 4.3 0.00 0.00 0.00 82 1011.4
20260506020045 49 320 0.9 2.6 0.00 0.00 0.00 81 1011.4
20260506014552 49 345 0.0 2.6 0.00 0.00 0.00 81 1011.6
20260506013100 50 348 0.0 2.6 0.00 0.00 0.00 81 1011.5
20260506011615 50 360 0.0 2.6 0.00 0.00 0.00 80 1011.6
20260506010056 50 0 0.0 1.7 0.00 0.00 0.00 80 1011.7
20260506004554 50 355 0.0 2.6 0.00 0.00 0.00 79 1011.8
20260506003057 50 0 0.0 1.7 0.00 0.00 0.00 79 1011.8
20260506001557 50 0 0.0 5.2 0.00 0.00 0.00 79 1011.8
20260506000059 51 316 0.9 4.3 0.00 0.00 0.00 79 1011.7
20260505234552 51 30 0.0 4.3 0.00 0.00 0.00 78 1011.7
20260505233050 52 0 0.9 3.5 0.00 0.00 0.00 78 1011.8
20260505231549 52 339 0.9 4.3 0.00 0.00 0.00 77 1011.7
20260505230059 53 13 0.0 3.5 0.00 0.00 0.00 75 1011.6
20260505224554 54 321 0.0 4.3 0.00 0.00 0.00 74 1011.4
20260505223050 54 351 1.7 7.0 0.00 0.00 0.00 74 1011.4
20260505221603 54 84 0.0 8.7 0.00 0.00 0.00 73 1011.2
20260505220101 54 42 0.0 4.3 0.00 0.00 0.00 73 1011.2
20260505214553 54 0 0.0 2.6 0.00 0.00 0.00 72 1011.2
20260505213045 55 323 0.0 3.5 0.00 0.00 0.00 72 1011.1
20260505211551 55 328 0.9 5.2 0.00 0.00 0.00 71 1011.1
20260505210158 55 0 0.0 5.2 0.00 0.00 0.00 71 1011.1
20260505204557 55 325 0.0 6.1 0.00 0.00 0.00 71 1011.0
20260505203049 56 71 0.9 6.1 0.00 0.00 0.00 71 1011.0
20260505201549 56 67 0.9 4.3 0.00 0.00 0.00 71 1010.9
20260505200045 56 355 0.0 5.2 0.00 0.00 0.00 70 1010.8
20260505194555 57 0 0.0 3.5 0.00 0.00 0.00 70 1010.6
20260505193051 57 0 0.9 3.5 0.00 0.00 0.00 70 1010.3
20260505191550 57 340 0.9 2.6 0.00 0.00 0.00 69 1010.2
20260505190049 57 340 0.0 3.5 0.00 0.00 0.00 69 1010.3
20260505184552 57 324 0.9 4.3 0.00 0.00 0.00 69 1010.2
20260505183054 58 322 0.9 4.3 0.00 0.00 0.00 68 1010.1
20260505181550 58 0 0.9 4.3 0.00 0.00 0.00 68 1010.1
20260505180050 58 0 0.0 3.5 0.00 0.00 0.00 68 1010.2
20260505174553 58 315 0.0 3.5 0.00 0.00 0.00 68 1010.1
20260505173053 58 5 0.9 3.5 0.00 0.00 0.00 69 1010.1
20260505171551 58 326 0.0 3.5 0.00 0.00 0.00 70 1010.1
20260505170050 58 333 0.0 2.6 0.00 0.00 0.00 70 1010.3
20260505164600 58 0 0.9 4.3 0.00 0.00 0.00 69 1010.2
20260505163049 58 339 0.0 4.3 0.00 0.00 0.00 69 1010.2
20260505161555 59 339 0.9 4.3 0.00 0.00 0.00 68 1010.3
20260505153107 59 337 1.7 5.2 0.00 0.00 0.00 65 1010.4
20260505151550 59 340 0.0 2.6 0.00 0.00 0.00 66 1010.4
20260505140104 59 322 1.7 5.2 0.00 0.00 0.00 67 1010.7
20260505124553 60 0 0.9 4.3 0.00 0.00 0.00 63 1011.0
20260505123057 61 91 0.9 3.5 0.00 0.00 0.00 62 1011.0
20260505121550 60 119 0.9 3.5 0.00 0.00 0.00 64 1010.9
20260505120104 59 343 0.9 4.3 0.00 0.00 0.00 66 1011.0
20260505114552 59 327 0.0 3.5 0.00 0.00 0.00 67 1011.1
20260505113111 59 0 0.9 4.3 0.00 0.00 0.00 69 1011.1
20260505111552 58 0 0.0 3.5 0.00 0.00 0.00 70 1011.3
20260505101550 56 19 0.9 4.3 0.00 0.00 0.00 74 1011.7
20260505100051 56 98 0.9 3.5 0.00 0.00 0.00 76 1011.7
20260505094554 56 336 0.9 5.2 0.00 0.00 0.00 77 1011.7
20260505093059 54 342 0.0 3.5 0.00 0.00 0.00 81 1011.6
20260505091554 54 0 0.9 3.5 0.00 0.00 0.00 82 1011.6
20260505090054 54 360 0.9 3.5 0.00 0.00 0.00 83 1011.7
20260505084554 53 0 0.9 3.5 0.00 0.00 0.00 84 1011.8
20260505083051 53 0 0.9 3.5 0.00 0.00 0.00 85 1012.1
20260505081549 52 0 0.0 3.5 0.00 0.00 0.00 85 1012.1
20260505080049 52 338 0.9 3.5 0.00 0.00 0.00 85 1012.1
20260505074552 52 0 0.0 3.5 0.00 0.00 0.00 86 1012.1